Location: Unspecified
(45.0746°N, 0.0000°E)
Time: 14:11:02
(UTC+00:00)

Tiros 1 despin weight - All Passes

Search period start: 04 April 2026 00:00
Search period end: 14 April 2026 00:00
Orbit: 555 x 593 km, 48.2° (Epoch: 29 March)

Date Brightness Start Highest point End Pass type
(mag) Time Alt. Az. Time Alt. Az. Time Alt. Az.
4 Apr - 00:24:48 10° WNW 00:29:09 57° N 00:33:30 10° E night (unlit)
4 Apr - 02:05:30 10° WNW 02:09:56 82° SSW 02:14:21 10° ESE visible
4 Apr - 03:46:37 10° W 03:50:05 23° SW 03:53:33 10° SSE visible
4 Apr - 19:28:47 10° SSE 19:30:04 11° SE 19:31:19 10° ESE visible
4 Apr - 21:05:38 10° SW 21:09:50 49° SSE 21:14:05 10° ENE visible
4 Apr - 22:46:01 10° W 22:50:23 66° NNW 22:54:48 10° ENE night (unlit)
5 Apr - 00:26:56 10° WNW 00:31:18 61° N 00:35:41 10° E night (unlit)
5 Apr - 02:07:36 10° WNW 02:11:58 62° SSW 02:16:19 10° SE night (unlit)
5 Apr - 03:49:18 10° W 03:51:55 16° SW 03:54:32 10° S visible
5 Apr - 19:29:01 10° S 19:31:50 17° SE 19:34:41 10° E visible
5 Apr - 21:07:31 10° SW 21:11:50 67° SSE 21:16:13 10° ENE visible
5 Apr - 22:48:11 10° W 22:52:32 59° N 22:56:54 10° ENE night (unlit)
6 Apr - 00:29:02 10° WNW 00:33:27 68° NNE 00:37:51 10° E night (unlit)
6 Apr - 02:09:44 10° WNW 02:13:58 45° SSW 02:18:09 10° SE night (unlit)
6 Apr - 19:30:08 10° SSW 19:33:41 25° SE 19:37:15 10° E visible
6 Apr - 21:09:31 10° WSW 21:13:52 87° SSE 21:18:17 10° ENE visible
6 Apr - 22:50:21 10° W 22:54:40 56° N 22:59:01 10° ENE visible
7 Apr - 00:31:07 10° WNW 00:35:32 81° NNE 00:39:57 10° ESE night (unlit)
7 Apr - 02:11:56 10° W 02:15:52 32° SW 02:19:48 10° SSE night (unlit)
7 Apr - 19:31:37 10° SSW 19:35:33 35° SE 19:39:33 10° E visible
7 Apr - 21:11:34 10° WSW 21:15:56 77° NNW 21:20:20 10° ENE visible
7 Apr - 22:52:29 10° WNW 22:56:49 57° N 23:01:10 10° E visible
8 Apr - 00:33:10 10° WNW 00:37:35 81° SSW 00:42:00 10° ESE night (unlit)
8 Apr - 02:14:17 10° W 02:17:44 23° SW 02:21:11 10° SSE night (unlit)
8 Apr - 17:56:27 10° SSE 17:57:42 11° SE 17:58:56 10° ESE daylight
8 Apr - 19:33:18 10° SW 19:37:29 49° SSE 19:41:42 10° ENE visible
8 Apr - 21:13:41 10° W 21:18:01 65° NNW 21:22:24 10° ENE visible
8 Apr - 22:54:35 10° WNW 22:58:56 61° N 23:03:18 10° E visible
9 Apr - 00:35:14 10° WNW 00:39:36 62° SSW 00:43:56 10° SE night (unlit)
9 Apr - 02:16:56 10° W 02:19:33 15° SW 02:22:09 10° S night (unlit)
9 Apr - 17:56:39 10° S 17:59:27 17° SE 18:02:16 10° E daylight
9 Apr - 19:35:09 10° SW 19:39:25 68° SSE 19:43:47 10° ENE visible
9 Apr - 21:15:49 10° W 21:20:08 59° N 21:24:29 10° ENE visible
9 Apr - 22:56:39 10° WNW 23:01:02 68° NNE 23:05:25 10° E visible
10 Apr - 00:37:20 10° WNW 00:41:33 45° SSW 00:45:44 10° SE night (unlit)
10 Apr - 17:57:45 10° SSW 18:01:15 25° SE 18:04:47 10° E daylight
10 Apr - 19:37:06 10° WSW 19:41:25 87° SSE 19:45:49 10° ENE visible
10 Apr - 21:17:56 10° W 21:22:14 56° N 21:26:34 10° ENE visible
10 Apr - 22:58:41 10° WNW 23:03:05 81° NNE 23:07:31 10° ESE visible
11 Apr - 00:39:30 10° W 00:43:25 32° SW 00:47:21 10° SSE night (unlit)
11 Apr - 17:59:11 10° SSW 18:03:05 35° SE 18:07:03 10° E daylight
11 Apr - 19:39:08 10° WSW 19:43:28 76° NNW 19:47:51 10° ENE visible
11 Apr - 21:20:02 10° WNW 21:24:20 57° N 21:28:40 10° E visible
11 Apr - 23:00:42 10° WNW 23:05:06 81° SSW 23:09:31 10° ESE visible
12 Apr - 00:41:49 10° W 00:45:15 22° SW 00:48:41 10° S night (unlit)
12 Apr - 16:24:01 10° SSE 16:25:12 11° SE 16:26:24 10° ESE daylight
12 Apr - 18:00:50 10° SW 18:04:58 49° SSE 18:09:11 10° ENE daylight
12 Apr - 19:41:13 10° W 19:45:31 65° NNW 19:49:53 10° ENE visible
12 Apr - 21:22:06 10° WNW 21:26:25 61° N 21:30:46 10° E visible
12 Apr - 23:02:44 10° WNW 23:07:04 61° SSW 23:11:25 10° SE visible
13 Apr - 00:44:26 10° W 00:47:01 15° SW 00:49:35 10° S night (unlit)
13 Apr - 16:24:10 10° S 16:26:55 17° SE 16:29:43 10° E daylight
13 Apr - 18:02:39 10° WSW 18:06:54 68° SSE 18:11:13 10° ENE daylight
13 Apr - 19:43:18 10° W 19:47:35 59° N 19:51:55 10° ENE visible
13 Apr - 21:24:08 10° WNW 21:28:29 69° NNE 21:32:51 10° E visible
13 Apr - 23:04:48 10° WNW 23:08:59 44° SSW 23:13:10 10° SE visible
